ONEWEB-0184, 48211

Orbit data source: Space-Track

ONEWEB-0184, 48211 is a payload satellite owned by One Web (NAA) (UK) in LEO that was launched on Sun, 25 Apr 2021 UTC via a SOYUZ-2-1B launch vehicle from the Vostochny Cosmodrome (VOSTO). Payload-class satellites include a variety of spacecraft equipped with specific instruments for various scientific and technological missions. These include communications satellites like Starlink; space stations such as the ISS; scientific satellites like the Hubble; Earth observation satellites from companies like Planet Labs, Umbra, and HawkEye 360; GPS; miniature CubeSats for education and research; and military/defense satellites.

Loading next visibility...
Identifier
48211, 2021-031B
Orbit
LEO
Country
Flag of UKUK
Related business
Manufacturer
One Web
Mission
Operational Commercial Communications
Bus & Motor
ARROW, Unknown motor
Mass
148 kg wet, ~140 kg dry
Launch date (UTC)
2021-04-25 (5 years ago)
Launch vehicle
SOYUZ-2-1B
Launch site
Vostochny Cosmodrome (VOSTO)
Object type
Payload
Rocket body
Debris
Shape & HBR
Trap Box + 2 Pan, 6.7 m
Radar Cross Section
3.464 m², Large (>1 m²)

Expand to show TLE details & history
Last TLE update: 20 hours ago

TLE from 20 hours ago
0 ONEWEB-0184
1 48211U 21031B   26094.08940923 -.00000227  00000-0 -64715-3 0  9998
2 48211  87.8951 304.4836 0002491  81.2312 278.9100 13.14503215238552
Epoch: 2026-04-04T02:08Z
TLE epoch observation values (Epoch: 2026-04-04T02:08:44.957Z)
Latitude
0.00001°
Longitude
79.88209°
Altitude
1,208.39 km
Speed
7.25 km/s
True Right ascension
20h 17m 56s
True Declination
0° 00' 00"
Sunlit
Object was in daylight at epoch
Visualization orbit readout
Latitude
Unknown
Longitude
Unknown
Altitude
Unknown
Speed
Unknown
Apparent Right ascension
Unknown
Apparent Declination
Unknown
Sunlit
N/A
Visualization observer readout
Local Sidereal Time
04:08:07
Azimuth
Unknown
Elevation
Unknown
Doppler factor
Unknown
Orbital elements
Apogee altitude
1,204.791 km
Perigee altitude
1,201.014 km
Semi-major axis
7,581.039 km
Eccentricity
0.00025
Inclination
87.8951°
RAAN
304.4836°
Arg. of periapsis
81.2312°
True anomaly
278.8818°
Mean anomaly
278.91°
Eccentric anomaly
278.8959°
Mean motion
3.28814 °/min
Orbital period
109.48 mins
BSTAR
-0.00064715
Loading maneuver chart data...
Computing Atmospheric mass density...
Loading historical data...
Loading historical data...
Loading historical data...
Loading historical data...
Loading historical data...
Loading historical data...
Loading historical data...

Documentation

Showing up to 5 results
|